Location: Kalberh�ni
(46.4610°N, 7.2453°E)
Time: 14:29:24
(UTC+00:00)

Cosmos 1606 Rocket - Pass Details

Date: 26 October 2021
Orbit: 602 x 633 km, 82.5° (Epoch: 04 December)

Event Time Altitude Azimuth Distance (km) Brightness Sun altitude
Rises 17:51:15 0° 164° (SSE) 2,915 6.9 -15.4°
Reaches altitude 10° 17:53:37 10° 155° (SSE) 2,012 6.0 -15.8°
Maximum altitude 17:57:39 34° 91° (E) 1,041 4.1 -16.5°
Drops below altitude 10° 18:01:42 10° 26° (NNE) 2,019 5.9 -17.2°
Sets 18:04:04 0° 18° (NNE) 2,928 6.8 -17.6°
